Canton, MA

10:04 PM EST on January 21, 2017 (GMT -0500)
East Milton

Weather History for KMQE - February, 2013

Change the Weather History Date:

Tuesday, February 5, 2013

  Actual Average (KOWD) Record (KOWD)
Temperature  
Mean Temperature 22 °F -  
Max Temperature 25 °F 36 °F 52 °F (2006)
Min Temperature 19 °F 17 °F 1 °F (2009)
Degree Days  
Heating Degree Days 43    
Moisture  
Dew Point 12 °F    
Average Humidity 66    
Maximum Humidity 89    
Minimum Humidity 55    
Precipitation  
Precipitation 0.04 in - - ()
Sea Level Pressure  
Sea Level Pressure 29.98 in    
Wind  
Wind Speed 5 mph (SSE)    
Max Wind Speed 10 mph    
Max Gust Speed -    
Averages and records for this station are not official NWS values.
T = Trace of Precipitation, MM = Missing Value Source: NWS Daily Summary

Daily Weather History Graph

Daily Weather History Graph

Search for Another Location

Airport or City:

Trip Planner

Search our weather history database for the weather conditions in past years. The results will help you decide how hot, cold, wet, or windy it might be!

Date:

Astronomy

Feb. 05, 2013 Rise Set
Actual Time 6:53 AM EST 5:04 PM EST
Civil Twilight 6:23 AM EST 5:33 PM EST
Nautical Twilight 5:50 AM EST 6:07 PM EST
Astronomical Twilight 5:17 AM EST 6:39 PM EST
Moon 2:33 AM EST (2/5) 12:16 PM EST (2/5)
Length of Visible Light 11h 10m
Length of Day
10h 11m
Waning Crescent, 27% of the Moon is Illuminated
Feb 5
Waning Crescent
Feb 10
New
Feb 17
First Quarter
Feb 25
Full
Mar 4
Last Quarter

Hourly Weather History & Observations

Time (EST) Temp. Windchill Dew Point Humidity Pressure Visibility Wind Dir Wind Speed Gust Speed Precip Events Conditions
12:54 AM 19.0 °F 8.2 °F 7.0 °F 59% 29.96 in - West 9.2 mph - N/A   Unknown
1:54 AM 19.0 °F 7.5 °F 7.0 °F 59% 29.98 in - West 10.4 mph - N/A   Unknown
2:54 AM 19.9 °F 10.1 °F 7.0 °F 57% 29.97 in - West 8.1 mph - N/A   Unknown
3:54 AM 19.9 °F 12.1 °F 7.0 °F 57% 29.97 in - WSW 5.8 mph - N/A   Unknown
4:54 AM 19.9 °F 13.4 °F 8.1 °F 60% 29.98 in - West 4.6 mph - N/A   Unknown
5:54 AM 19.9 °F 14.9 °F 8.1 °F 60% 29.98 in - SW 3.5 mph - N/A   Unknown
6:54 AM 21.0 °F - 9.0 °F 60% 30.00 in - Calm Calm - N/A   Unknown
7:54 AM 21.0 °F 14.6 °F 9.0 °F 60% 30.03 in - WSW 4.6 mph - N/A   Unknown
8:54 AM 21.9 °F - 10.0 °F 60% 30.02 in - Calm Calm - N/A   Unknown
9:54 AM 23.0 °F - 9.0 °F 55% 30.03 in - Calm Calm - N/A   Unknown
10:54 AM 23.0 °F - 9.0 °F 55% 30.04 in - Calm Calm - N/A   Unknown
11:54 AM 24.1 °F - 10.0 °F 55% 30.01 in - Calm Calm - N/A   Unknown
12:54 PM 24.1 °F - 12.0 °F 60% 30.00 in - Calm Calm - N/A   Unknown
1:54 PM 25.0 °F 20.7 °F 12.9 °F 60% 29.99 in - SSE 3.5 mph - N/A   Unknown
2:54 PM 25.0 °F 20.7 °F 12.9 °F 60% 29.99 in - SE 3.5 mph - N/A   Unknown
3:54 PM 24.1 °F 17.0 °F 12.9 °F 62% 29.96 in - ESE 5.8 mph - N/A   Unknown
4:54 PM 24.1 °F 18.2 °F 12.9 °F 62% 29.97 in - SE 4.6 mph - N/A   Unknown
5:54 PM 24.1 °F 16.0 °F 15.1 °F 69% 29.96 in - ESE 6.9 mph - N/A   Unknown
6:54 PM 24.1 °F 18.2 °F 17.1 °F 75% 29.98 in - SE 4.6 mph - N/A   Unknown
7:54 PM 21.9 °F 15.7 °F 19.0 °F 89% 29.97 in - East 4.6 mph - 0.01 in   Unknown
8:54 PM 23.0 °F 18.4 °F 19.9 °F 88% 29.97 in - East 3.5 mph - 0.01 in   Unknown
9:54 PM 24.1 °F 19.7 °F 19.9 °F 84% 29.97 in - NE 3.5 mph - 0.01 in   Unknown
10:54 PM 24.1 °F 18.2 °F 21.0 °F 88% 29.96 in - ENE 4.6 mph - 0.01 in   Unknown
11:54 PM 24.1 °F 16.0 °F 21.0 °F 88% 29.94 in - ENE 6.9 mph - N/A   Unknown